Showing default

ION SCV-015, 58469

Orbit data source: Space-Track

ION SCV-015, 58469 is a payload satellite owned by D-ORBIT (IT) in SSO that was launched on Fri, 01 Dec 2023 UTC via an FALCON 9 launch vehicle from the Air Force Western Test Range (AFWTR). Payload-class satellites include a variety of spacecraft equipped with specific instruments for various scientific and technological missions. These include communications satellites like Starlink; space stations such as the ISS; scientific satellites like the Hubble; Earth observation satellites from companies like Planet Labs, Umbra, and HawkEye 360; GPS; miniature CubeSats for education and research; and military/defense satellites.

Loading next visibility...
Identifier
58469, 2023-185H
Orbit
SSO
Last TLE update
7 hours ago
Origin
Manufacturer
D-ORBIT
Mission
Operational Commercial Technology
Bus & Motor
ION-SC, PM200
Mass
220 kg wet, 150 kg dry
Launch date (UTC)
2023-12-01 (2 years ago)
Launch vehicle
FALCON 9
Launch site
Air Force Western Test Range (AFWTR)
Object type
Payload
Rocket body
Debris
Shape & HBR
Box, 0.4 m
Radar Cross Section
0.240 m², Medium (>0.1 m² and < 1m²)

Expand to show TLE details & history

TLE from 7 hours ago
0 ION SCV-015
1 58469U 23185H   25192.18093751  .00003447  00000-0  13154-3 0  9999
2 58469  97.6037 268.5988 0009578 217.4269 142.6303 15.27332167 88936
Epoch: 2025-07-11T04:20Z
TLE epoch observation values (Epoch: 2025-07-11T04:20:33Z)
Latitude
-0.00009°
Longitude
-85.87524°
Altitude
492.113 km
Speed
7.616 km/s
True Right ascension
17h 54m 23s
True Declination
0° 00' 00"
Sunlit
Object was in full shadow at epoch
Visualization orbit readout
Latitude
-53.56086°
Longitude
84.07638°
Altitude
498.359 km
Speed
7.617 km/s
Apparent Right ascension
09h 00m 28s
Apparent Declination
-58° 57' 15"
Sunlit
Object is in daylight
Visualization observer readout
Local Sidereal Time
23:57:17
Azimuth
139.425° SSE
Elevation
-56.439°
Doppler factor
1
Orbital elements
Apogee altitude
487.325 km
Perigee altitude
474.187 km
Semi-major axis
6,858.893 km
Eccentricity
0.00096
Inclination
97.6037°
RAAN
268.5988°
Arg. of periapsis
217.4269°
True anomaly
Unknown
Mean anomaly
142.6303°
Eccentric anomaly
Unknown
Mean motion
3.82087 °/min
Orbital period
94.22 mins
BSTAR
0.00013154
Loading maneuver chart data...
Loading SW <> Apogee altitude chart data...
Loading historical data...
Loading historical data...
Loading historical data...
Loading historical data...
Loading historical data...
Loading historical data...
Loading historical data...

ION SCV-015 Visibility forecast

Observer location: undefined°, undefined°

Span
Click to sort rows by Start time (UTC) header in descending order
Start Az.
Max El. time (UTC)
Max El. Az.
Max El.
End time (UTC)
End Az.
6 mins2025-07-11 17:29:13.123Z34.445° NE2025-07-11 17:32:13.123Z99.32° ESE28.144°2025-07-11 17:35:13.123Z161.856° S
5 mins2025-07-12 05:38:13.123Z204.822° SW2025-07-12 05:40:13.123Z257.354° W30.172°2025-07-12 05:43:13.123Z326.649° NNW
|